Simultaneous Nadir Overpasses (SNOs) Predictions

Prediction of SNOs between METOP-B and NOAA-19 Satellite Orbit:

Table of predicted SNOs for the next 14.0 days since TLE Epoch: 3/2/2024
Index Date (METOP-B) Time (METOP-B) Lat,Lon (METOP-B) SZA (METOP-B ) Date (NOAA-19) Time (NOAA-19) Lat,Lon (NOAA-19) SZA (NOAA-19 ) Distance(km) Time Diff (sec)
1 03/05/2024 13:57:43 79.71, -11.78 85.71 03/05/2024 13:56:32 79.70, -11.85 85.69 1.63 71
2 03/05/2024 14:48:23 -79.76, 155.96 94.24 03/05/2024 14:47:26 -79.74, 155.82 94.27 3.17 57
3 03/05/2024 15:39:02 79.80, -36.37 85.80 03/05/2024 15:38:27 79.80, -36.36 85.80 0.25 35
4 03/05/2024 16:29:42 -79.84, 131.37 94.15 03/05/2024 16:29:21 -79.83, 131.31 94.17 1.32 21
5 03/05/2024 17:20:21 79.88, -60.96 85.89 03/05/2024 17:20:22 79.89, -60.86 85.91 2.12 1
6 03/05/2024 18:11:02 -79.89, 106.50 94.11 03/05/2024 18:11:17 -79.90, 106.52 94.10 0.60 15
7 03/05/2024 19:01:41 79.93, -85.82 85.94 03/05/2024 19:02:19 79.92, -85.94 85.93 2.58 38
8 03/05/2024 19:52:21 -79.97, 81.93 94.02 03/05/2024 19:53:12 -79.98, 82.04 93.99 2.42 51



Historial Predications of SNOs between METOP-B and NOAA-19
